User: anonymous   Login
Location: Unspecified
(0.0000°N, 0.0000°E)
Time: 17:02:26
(UTC+01:00)
Language:

YAOGAN 1 - Orbit

View from above orbital plane
View from above orbital plane
View from above satellite
View from above satellite

Ground track
Ground track

The orbit data is extracted from the following two-line orbital elements,

1 29092U 06015A   15086.02828079  .00000964  00000-0  12739-3 0  9994
2 29092 097.9951 085.8906 0001453 087.8593 339.1432 14.82284352481886
Epoch (UTC): 27 March 2015 00:40:43
Eccentricity: 0.0001453
inclination: 97.9951°
perigee height: 621 km
apogee height: 623 km
right ascension of ascending node: 85.8906°
argument of perigee: 87.8593°
revolutions per day: 14.82284352
mean anomaly at epoch: 339.1432°
orbit number at epoch: 48188

The dashed part of the orbit path shows where the satellite is in the earth's shadow,  

DLR